Location: Maddington
(51.2000°N, 1.9167°W)
Time: 01:39:28
(UTC+00:00)

CENTAUR R/B - Pass Details

Date: 18 September 2020
Orbit: 753 x 1435 km, 63.5° (Epoch: 26 October)

Event Time Altitude Azimuth Distance (km) Brightness Sun altitude
Rises 19:21:31 0° 312° (NW) 3,998 7.0 -11.2°
Reaches altitude 10° 19:24:08 10° 316° (NW) 3,127 6.2 -11.6°
Maximum altitude 19:31:45 61° 36° (NE) 1,477 3.3 -12.7°
Enters shadow 19:38:32 18° 113° (ESE) 2,932 4.3 -13.7°
